RH
63 99 100 84 92 99 95 94 94 93 64 51 88 92 42 13 22 20 80 19 18 16 22 23 26 30 30 25 37 35 20 52 58 43 54 65 41 17 16 17 17 18 20 20
82 87 98 94 93 98 100 91 93 75 25 50 86 90 23 15 29 29 24 16 15 22 29 32 38 35 31 19 20 36 50 52 47 50 56 25 16 16 17 19 23 26 26 24
71 94 88 94 98 88 96 97 93 94 26 18 80 71 74 25 20 21 22 24 21 21 17 25 25 26 26 24 44 44 40 28 20 20 18 17 16 18 22 25 28 29 28 28
95 94 83 100 94 98 98 74 90 99 92 47 85 96 93 93 39 22 21 18 16 20 18 23 29 23 33 52 55 29 20 18 17 17 18 18 20 22 24 25 28 30 33 35
96 98 100 98 98 77 94 79 66 90 79 78 90 95 76 84 76 35 32 33 21 18 16 21 28 25 31 38 22 16 16 17 18 19 20 22 23 22 24 27 33 38 40 43
93 65 96 95 96 64 54 36 36 70 93 80 88 96 88 96 98 92 91 57 36 22 17 17 18 18 28 19 16 17 20 24 24 24 26 25 25 26 30 35 40 43 46 48
92 68 67 69 52 40 33 48 64 99 93 84 91 95 97 98 93 90 53 44 32 18 15 16 17 23 15 15 18 24 25 24 23 22 22 23 25 31 35 38 43 47 50 53
82 83 98 64 44 96 40 66 97 96 89 92 90 87 80 63 70 63 44 16 18 17 16 15 14 16 19 19 22 23 22 20 19 19 20 23 26 29 28 30 30 32 40 61
69 87 88 81 20 37 97 78 96 90 94 46 53 65 54 43 59 56 16 14 13 13 15 17 16 18 22 23 23 20 18 18 19 21 22 24 25 26 26 28 30 36 41 63
91 96 87 65 20 30 28 27 21 26 20 16 21 85 94 88 54 20 16 16 15 16 16 14 13 15 17 18 18 19 20 21 22 24 25 26 27 28 29 31 34 46 68 65
63 97 98 19 24 26 23 26 20 23 31 19 15 77 92 72 47 19 17 15 14 14 14 15 16 18 20 21 22 23 23 24 26 27 29 29 30 31 31 35 47 63 69 70
23 25 28 18 19 15 16 26 19 13 16 12 13 23 40 41 27 16 16 16 15 16 16 17 19 22 23 22 21 21 24 28 32 33 32 33 33 36 44 59 61 64 67 78
13 10 9 10 47 10 8 10 13 28 15 17 20 22 19 20 18 15 15 16 18 18 20 20 19 21 22 22 26 32 37 37 35 36 41 46 43 63 69 70 67 66 71 82
14 13 14 11 26 82 92 38 12 20 17 26 22 18 32 20 15 13 14 17 20 21 21 23 22 22 28 34 36 38 35 37 39 47 60 55 64 73 73 69 66 73 83 84
8 9 12 11 21 76 99 63 24 23 24 27 22 20 20 73 65 24 18 18 20 27 29 34 38 35 30 34 35 39 48 56 59 59 62 76 75 84 65 66 79 80 77 82
10 9 8 11 18 20 27 23 22 26 30 31 26 25 27 33 21 24 22 25 25 29 38 40 45 45 43 48 52 56 58 56 56 67 75 71 69 63 77 79 70 72 86 86
18 12 11 13 18 24 23 30 28 28 32 33 30 28 27 28 26 13 26 32 27 28 31 36 38 50 56 50 43 48 56 60 71 74 68 62 74 77 76 78 81 96 93 98
24 16 14 14 24 24 27 29 30 26 27 29 28 25 24 24 24 24 20 14 22 19 26 31 36 37 35 44 45 49 65 80 78 68 67 83 80 81 78 96 97 100 100 100
23 21 17 18 25 24 22 21 24 24 28 21 17 19 23 14 16 14 11 13 16 16 18 21 27 32 44 56 67 86 87 68 65 72 78 78 98 89 75 90 100 100 100 100
25 21 20 24 25 22 20 19 16 12 12 6 11 9 10 11 11 12 13 12 15 20 27 32 50 72 81 80 83 71 67 72 74 73 88 80 75 98 100 99 100 100 100 100
15 16 16 14 9 7 7 8 9 8 9 9 8 7 7 8 9 9 12 19 30 32 39 65 70 73 61 56 56 68 71 73 85 95 100 98 100 100 100 100 100 100 100 100
11 11 11 10 10 10 10 8 9 9 8 7 6 6 6 9 17 22 27 30 51 58 52 52 56 52 51 63 73 78 86 93 98 86 84 100 100 97 100 100 100 100 100 100
10 10 10 11 10 8 8 8 7 6 6 6 6 8 11 18 24 33 42 44 52 52 51 46 53 70 69 68 75 79 78 72 67 83 100 100 100 100 100 100 100 100 99 73
12 10 11 10 12 11 8 8 6 6 7 6 10 15 20 33 43 42 35 32 36 38 45 76 74 70 72 75 71 68 70 73 80 100 100 100 100 100 100 100 100 93 57 28
13 11 12 12 13 12 12 7 7 7 6 11 20 25 39 39 32 27 32 50 52 52 63 63 66 70 71 71 72 71 72 96 100 100 100 99 100 100 100 100 77 32 19 14
12 13 13 15 10 14 10 9 8 7 13 27 38 37 32 27 24 42 59 61 63 64 63 64 68 73 76 73 54 53 69 69 75 60 61 96 100 100 84 48 23 20 18 15
Wind_Speed
14 23 24 20 12 5 2 9 6 9 9 13 10 11 9 10 9 11 8 5 2 0 2 6 8 11 15 16 16 22 21 21 22 25 26 27 30 29 26 29 33 37 41 44
17 24 17 11 14 7 5 4 12 16 9 14 13 11 6 6 4 6 6 6 4 5 6 8 11 13 17 21 20 22 24 23 26 25 26 29 25 26 29 33 35 39 42 44
15 17 13 10 9 15 10 10 13 6 3 10 18 13 20 7 6 5 5 9 11 11 9 12 13 17 21 23 24 25 27 28 26 22 21 23 24 28 30 34 39 42 45 48
18 14 15 7 10 7 14 17 15 7 4 5 13 12 27 22 4 9 9 11 13 15 16 16 20 23 23 25 27 28 26 20 20 21 24 26 29 33 36 40 43 46 48 51
10 13 7 11 17 17 9 13 7 3 10 17 20 23 13 19 23 13 11 13 19 21 23 22 24 26 26 29 29 21 18 18 21 24 26 31 35 39 42 45 48 50 54 55
13 13 11 17 12 6 5 3 6 14 13 19 8 15 18 23 16 19 17 17 19 25 29 30 30 30 29 27 21 18 18 21 24 28 32 36 40 44 46 49 50 52 54 55
12 8 10 5 6 7 10 7 4 13 13 16 3 15 20 22 12 27 23 15 21 29 31 33 31 28 24 19 18 20 23 26 30 34 37 41 44 47 50 52 54 56 56 56
10 10 12 13 9 16 6 12 15 16 5 5 15 5 13 19 24 29 31 27 23 26 26 24 19 17 18 20 22 26 30 33 36 40 43 46 49 51 53 56 58 59 60 59
18 22 19 9 13 15 4 16 15 13 10 11 14 8 15 18 18 22 26 19 17 16 14 16 18 19 21 24 28 33 36 38 42 45 48 51 53 55 57 58 59 59 58 57
24 9 5 9 13 12 13 13 13 16 18 16 8 3 15 21 18 14 15 13 14 16 17 21 23 24 27 30 34 38 42 44 46 49 52 54 56 57 59 60 60 57 58 60
16 9 13 11 12 13 14 16 15 17 18 16 10 9 14 20 19 16 18 19 18 21 23 24 27 30 33 35 38 42 46 48 48 51 54 56 58 59 60 60 59 57 58 61
20 21 21 11 17 12 16 16 16 20 18 21 16 15 22 18 19 20 20 24 26 26 29 31 32 34 38 42 44 45 48 50 51 54 56 57 59 60 60 59 57 57 60 62
21 17 17 16 16 13 16 17 18 20 17 15 16 13 20 20 23 24 24 25 29 31 35 39 40 40 41 47 48 50 51 53 53 55 56 58 59 58 59 59 58 61 61 60
23 19 20 19 13 18 13 19 19 19 17 15 16 16 20 24 29 30 28 28 32 37 38 42 48 50 49 51 52 53 54 53 54 55 56 57 56 56 58 60 61 62 62 65
24 23 23 21 18 22 23 19 18 19 17 20 15 19 18 19 30 37 41 38 37 38 46 47 50 55 57 55 55 53 53 53 53 54 54 53 56 58 59 60 60 61 64 68
20 21 20 18 20 20 20 18 18 19 18 20 21 24 23 31 36 37 40 41 46 46 46 49 49 53 54 55 56 54 52 52 53 51 52 57 58 61 59 59 64 67 72 73
20 21 20 20 19 19 17 15 18 18 20 23 26 26 30 33 40 42 37 44 48 47 49 50 51 52 53 55 55 52 51 50 51 52 56 58 57 59 61 67 71 77 77 75
20 22 21 21 19 19 17 15 17 19 22 27 30 33 34 36 40 41 45 47 47 51 52 53 53 53 52 51 51 49 48 50 55 56 57 56 57 61 64 69 77 82 85 85
20 21 20 22 21 18 17 18 17 22 24 29 30 31 33 37 39 44 46 48 50 52 53 52 49 48 47 47 46 47 52 56 57 56 56 61 61 65 71 79 82 92 92 84
15 17 19 18 19 20 19 18 19 21 25 26 28 32 35 39 42 45 47 49 49 48 47 47 44 44 44 46 49 52 55 55 55 57 61 62 65 77 80 84 86 91 81 68
13 14 14 14 15 14 17 16 21 24 27 31 33 35 39 42 45 46 46 46 45 49 48 45 46 47 48 50 51 51 54 56 58 58 63 66 68 71 78 87 79 76 75 71
12 12 12 15 16 19 21 24 25 28 31 33 36 40 42 43 42 44 45 49 41 45 49 47 47 48 48 49 52 54 57 57 61 64 66 65 73 76 84 85 81 76 73 75
17 16 17 18 21 24 27 27 30 32 34 38 40 41 43 44 44 46 49 50 44 48 46 48 48 48 52 53 55 58 61 64 68 68 70 76 78 81 83 85 85 80 80 72
21 21 23 24 26 31 33 32 36 36 40 42 43 43 44 42 46 48 47 46 46 47 46 46 49 52 55 57 60 64 66 68 67 65 60 72 71 72 78 82 81 71 65 64
28 28 30 30 32 36 38 41 41 41 44 44 43 45 44 45 46 46 46 46 46 44 47 51 54 57 60 63 66 66 65 60 62 63 66 68 70 74 78 76 63 60 62 61
34 35 36 37 39 38 43 44 44 45 45 43 44 45 45 46 46 46 45 45 47 50 53 56 60 63 66 67 65 63 60 59 62 63 66 69 72 74 67 60 57 61 63 59
Wind_Direction
195 189 186 204 129 188 276 113 197 218 258 194 200 262 257 237 247 278 213 254 200 117 340 312 297 290 288 288 282 287 300 301 299 296 299 306 310 314 320 323 324 325 325 322
201 197 190 151 135 138 105 144 176 210 257 192 220 218 245 265 251 306 313 303 287 278 285 276 274 280 279 288 298 302 307 305 307 307 305 307 311 313 320 319 321 319 317 314
221 170 155 153 198 139 106 233 214 215 231 193 201 193 251 263 268 270 282 292 295 286 283 284 286 288 295 301 303 302 307 307 304 307 304 304 309 311 312 314 315 313 312 314
205 171 133 189 145 198 214 211 218 177 239 243 251 223 224 209 283 281 262 273 282 284 292 294 294 296 297 292 293 301 302 301 304 304 305 305 308 308 309 310 310 311 311 313
133 169 143 197 178 204 221 199 192 241 229 264 236 230 261 286 294 255 247 272 286 287 290 291 287 290 292 290 298 298 295 299 301 301 302 305 305 306 307 307 308 311 311 314
190 155 210 217 200 173 273 219 226 208 212 265 306 293 298 265 272 245 226 264 270 284 289 291 291 291 291 294 293 292 298 300 301 301 302 303 303 303 304 305 307 308 310 311
211 167 233 226 322 228 243 247 147 242 210 250 230 264 288 317 272 296 294 287 281 285 287 286 289 289 293 292 289 294 301 302 301 302 302 302 302 302 303 305 306 306 308 308
221 222 214 255 257 245 190 177 227 261 230 223 251 297 299 293 296 308 304 305 292 286 286 286 286 291 291 289 292 298 302 302 303 303 302 302 302 302 303 304 305 305 306 308
215 228 206 231 229 237 223 215 242 292 308 241 256 252 278 268 277 291 286 293 286 286 287 289 294 297 296 296 296 299 300 300 300 301 301 302 303 303 304 305 306 306 308 305
249 211 211 196 223 223 231 234 234 248 263 270 233 11 258 274 285 275 282 283 290 290 291 294 296 298 297 297 298 298 297 299 300 301 302 302 303 304 306 307 308 308 304 306
218 280 260 221 237 244 237 255 256 258 263 269 255 222 247 257 275 277 286 287 286 286 288 290 294 296 296 296 297 298 298 300 301 301 302 303 303 305 307 307 307 306 305 306
224 227 234 237 246 248 263 264 269 257 256 264 262 226 250 257 267 275 280 286 286 288 290 291 292 296 298 299 300 300 300 302 303 302 302 303 304 306 306 306 306 306 307 306
237 241 251 253 273 262 260 256 254 260 265 263 256 255 257 259 268 271 278 279 288 292 295 297 298 298 299 300 301 302 302 302 303 301 303 304 305 305 307 307 307 307 306 306
250 250 257 262 260 260 275 259 254 252 259 258 259 254 270 283 272 273 273 280 289 293 295 298 299 301 303 303 303 302 303 302 303 302 304 305 306 304 305 307 308 308 306 307
248 251 253 254 241 253 234 250 239 248 255 251 254 261 259 261 270 286 293 294 293 297 300 302 303 303 303 303 303 303 302 303 303 304 305 304 302 304 307 306 307 308 306 306
248 248 247 246 241 249 243 242 247 251 252 260 262 265 270 267 272 278 287 294 295 298 298 298 299 298 301 302 302 303 304 304 302 304 304 305 305 308 306 306 309 309 308 308
238 242 242 239 242 245 246 247 250 250 254 263 266 269 268 272 279 289 294 289 290 294 296 296 298 299 300 300 301 304 304 303 303 305 307 307 305 310 308 308 306 302 302 306
239 240 238 238 238 244 248 247 252 258 262 263 266 271 278 282 286 293 290 293 296 296 297 297 297 298 299 300 302 304 303 303 304 306 307 306 308 309 309 304 302 299 297 294
237 237 237 236 240 249 260 255 261 263 263 269 273 278 281 287 287 288 291 295 293 294 296 297 299 302 301 302 305 303 302 304 307 309 308 307 302 303 311 312 306 303 296 293
233 231 234 238 249 256 259 263 266 268 270 278 283 284 287 288 289 290 293 294 295 297 298 299 303 301 301 303 303 304 305 306 306 307 308 311 312 310 296 303 301 296 295 296
225 229 237 244 254 261 267 271 274 277 285 290 293 293 294 294 294 295 295 297 300 300 299 301 301 301 303 303 303 303 304 306 307 307 306 308 306 297 293 288 293 296 294 295
239 247 254 263 268 271 278 281 286 290 291 292 293 294 295 295 295 296 297 297 301 299 300 302 301 301 302 304 305 306 306 308 307 306 306 300 300 302 296 294 293 292 293 304
258 262 270 274 281 282 285 289 291 291 294 295 295 296 296 297 299 298 299 300 303 299 302 301 303 305 307 307 306 307 306 306 307 305 295 298 291 291 298 303 301 298 309 322
269 274 278 283 288 290 290 293 290 297 295 295 297 296 297 299 297 298 300 302 300 301 303 304 305 306 305 305 306 306 306 304 305 304 302 299 305 306 305 299 302 317 324 324
273 277 280 285 286 290 292 294 298 296 295 295 295 296 298 297 298 300 301 302 302 303 302 302 304 304 305 306 306 304 303 306 304 302 303 305 305 303 300 309 319 324 327 324
271 279 282 285 286 288 287 294 293 294 294 295 294 297 298 298 299 300 301 300 300 301 303 304 304 305 306 306 304 303 304 302 301 301 301 301 301 304 312 316 317 325 328 324